Weather History for KP59 - December, 2012

Change the Weather History Date:

Monday, December 3, 2012

  Actual Average (WUND) Record (WUND)
Temperature  
Mean Temperature 44 °F -  
Max Temperature 50 °F - - (-1)
Min Temperature 37 °F - - (-1)
Degree Days  
Heating Degree Days 22    
Moisture  
Dew Point 40 °F    
Average Humidity 87    
Maximum Humidity 97    
Minimum Humidity 68    
Precipitation  
Precipitation 0.03 in - - ()
Sea Level Pressure  
Sea Level Pressure 29.67 in    
Wind  
Wind Speed 11 mph (WSW)    
Max Wind Speed 23 mph    
Max Gust Speed 34 mph    
Averages and records for this station are not official NWS values.
T = Trace of Precipitation, MM = Missing Value Source: NWS Daily Summary

Daily Weather History Graph

Daily Weather History Graph

Search for Another Location

Airport or City:

Trip Planner

Search our weather history database for the weather conditions in past years. The results will help you decide how hot, cold, wet, or windy it might be!

Date:

Astronomy

Dec. 03, 2012 Rise Set
Actual Time 8:21 AM EST 5:01 PM EST
Civil Twilight 7:45 AM EST 5:36 PM EST
Nautical Twilight 7:07 AM EST 6:15 PM EST
Astronomical Twilight 6:30 AM EST 6:52 PM EST
Moon 9:59 PM EST (12/3) 11:34 AM EST (12/3)
Length of Visible Light 9h 50m
Length of Day
8h 40m
Waning Gibbous, 78% of the Moon is Illuminated
Dec 3
Waning Gibbous
Dec 6
Last Quarter
Dec 13
New
Dec 20
First Quarter
Dec 28
Full

Hourly Weather History & Observations

Time (EST) Temp. Windchill Dew Point Humidity Pressure Visibility Wind Dir Wind Speed Gust Speed Precip Events Conditions
12:51 AM 37.9 °F 32.7 °F 35.1 °F 89% 29.94 in - SW 6.9 mph - N/A   Unknown
1:51 AM 37.9 °F 35.5 °F 35.1 °F 89% 29.91 in - Variable 3.5 mph - N/A   Unknown
2:51 AM 37.9 °F 29.2 °F 35.1 °F 89% 29.88 in - SW 15.0 mph 25.3 mph N/A   Unknown
3:51 AM 39.0 °F 30.6 °F 36.0 °F 89% 29.87 in - SW 15.0 mph 25.3 mph N/A   Unknown
4:51 AM 39.0 °F 31.0 °F 36.0 °F 89% 29.84 in - SW 13.8 mph 23.0 mph N/A   Unknown
5:51 AM 39.9 °F 33.9 °F 36.0 °F 86% 29.84 in - SW 9.2 mph 19.6 mph N/A   Unknown
6:51 AM 39.9 °F 32.5 °F 37.0 °F 89% 29.81 in - SW 12.7 mph 21.9 mph N/A   Unknown
7:51 AM 39.9 °F 31.8 °F 37.9 °F 93% 29.77 in - SW 15.0 mph 29.9 mph N/A   Unknown
8:51 AM 39.9 °F 30.5 °F 37.9 °F 93% 29.73 in - SSW 19.6 mph 33.4 mph N/A   Unknown
9:51 AM 42.1 °F 34.2 °F 39.0 °F 89% 29.70 in - SW 16.1 mph 34.5 mph N/A   Unknown
10:51 AM 43.0 °F 33.8 °F 39.9 °F 89% 29.68 in - SSW 23.0 mph 34.5 mph N/A   Unknown
11:51 AM 46.0 °F 39.6 °F 41.0 °F 83% 29.65 in - SW 15.0 mph 31.1 mph N/A   Unknown
12:51 PM 46.0 °F 38.8 °F 43.0 °F 89% 29.60 in - SSW 18.4 mph 32.2 mph 0.01 in   Unknown
1:51 PM 46.9 °F - 44.1 °F 90% 29.58 in - SSW 10.4 mph 24.2 mph N/A   Unknown
2:51 PM 46.9 °F - 45.0 °F 93% 29.54 in - SSW 12.7 mph 26.5 mph N/A   Unknown
3:51 PM 48.0 °F - 45.0 °F 89% 29.54 in - SW 9.2 mph 20.7 mph N/A   Unknown
4:51 PM 48.0 °F - 46.0 °F 93% 29.53 in - SW 6.9 mph - N/A   Unknown
5:51 PM 46.9 °F - 46.0 °F 97% 29.49 in - SSW 8.1 mph - 0.02 in   Unknown
6:51 PM 48.9 °F - 46.9 °F 93% 29.48 in - SW 8.1 mph - N/A   Unknown
7:51 PM 50.0 °F - 46.9 °F 89% 29.51 in - NW 8.1 mph 20.7 mph N/A   Unknown
8:51 PM 50.0 °F - 44.1 °F 80% 29.51 in - WNW 12.7 mph 24.2 mph N/A   Unknown
9:51 PM 46.9 °F - 39.9 °F 77% 29.55 in - NW 16.1 mph 29.9 mph N/A   Unknown
10:51 PM 45.0 °F 38.9 °F 37.0 °F 74% 29.57 in - NW 12.7 mph 29.9 mph N/A   Unknown
11:51 PM 44.1 °F 37.7 °F 34.0 °F 68% 29.58 in - NW 12.7 mph 34.5 mph N/A   Unknown